Date,TemperatureHighF,TemperatureAvgF,TemperatureLowF,DewpointHighF,DewpointAvgF,DewpointLowF,HumidityHigh,HumidityAvg,HumidityLow,PressureMaxIn,PressureMinIn,WindSpeedMaxMPH,WindSpeedAvgMPH,GustSpeedMaxMPH,PrecipitationSumIn
2014-1-1,51,41,32,33,0,-51,98,42,1,30.26,29.98,4,1,0,0.00
2014-1-2,50,44,40,49,37,22,98,77,43,29.98,29.39,5,1,0,0.33
2014-1-3,42,29,23,42,-37,-64,98,17,1,30.29,29.48,14,4,0,0.02
2014-1-4,40,31,19,4,-31,-62,39,15,1,30.34,30.09,3,1,0,0.00
2014-1-5,63,49,37,62,38,4,98,72,24,30.09,29.60,6,2,0,0.00
2014-1-6,62,45,17,62,7,-67,98,55,1,30.00,29.46,9,4,0,0.18
2014-1-7,26,17,9,-62,-68,-73,1,1,1,30.32,30.01,8,2,0,0.00
2014-1-8,43,28,15,-1,-52,-68,47,6,1,30.46,30.31,4,0,0,0.00
2014-1-9,54,36,25,13,-36,-62,53,13,1,30.42,30.30,2,0,0,0.00
2014-1-10,52,45,40,51,37,-51,98,86,1,30.29,29.91,4,1,0,1.14
2014-1-11,68,59,49,68,58,48,98,98,98,29.91,29.42,9,2,0,0.32
2014-1-12,58,49,40,54,6,-49,98,40,1,30.00,29.50,6,2,0,0.01
2014-1-13,63,48,35,42,19,-44,98,53,1,30.01,29.79,7,1,0,0.00
2014-1-14,54,49,41,53,48,41,98,97,69,29.80,29.61,4,0,0,0.46
2014-1-15,60,46,37,56,30,-43,98,74,1,29.80,29.66,9,1,0,0.01
2014-1-16,45,36,29,40,12,-57,98,64,1,29.85,29.74,6,2,0,0.05
2014-1-17,56,41,29,43,-4,-53,98,37,1,29.85,29.67,6,2,0,0.00
2014-1-18,47,33,26,12,-40,-62,34,8,1,29.86,29.65,7,2,0,0.00
2014-1-19,54,41,31,-44,-53,-59,1,1,1,29.84,29.71,6,2,0,0.00
2014-1-20,64,46,34,19,-27,-54,54,12,1,29.74,29.61,6,2,0,0.00
2014-1-21,53,39,26,38,4,-55,98,53,1,29.65,29.35,6,2,0,0.07
2014-1-22,32,25,18,26,-26,-67,98,29,1,29.92,29.65,10,2,0,0.00
2014-1-23,39,27,17,12,-36,-65,79,20,1,30.26,29.91,5,2,0,0.01
2014-1-24,27,18,11,-61,-67,-71,1,1,1,30.44,30.09,9,2,0,0.00
2014-1-25,41,30,16,-52,-60,-68,1,1,1,30.08,29.45,11,3,0,0.00
2014-1-26,52,39,24,4,-46,-62,39,5,1,29.80,29.62,5,2,0,0.00
2014-1-27,66,50,34,-37,-47,-57,1,1,1,29.92,29.59,10,2,0,0.00
2014-1-28,33,27,17,21,-41,-63,98,24,1,30.15,29.93,7,3,0,0.00
2014-1-29,33,22,12,17,-29,-70,98,38,1,30.20,29.99,6,2,0,0.00
2014-1-30,41,22,8,10,-34,-68,98,28,1,30.27,30.05,4,1,0,0.04
2014-1-31,52,32,15,18,-31,-61,98,24,1,30.06,29.98,4,0,0,0.19
2014-2-1,59,41,26,44,-7,-60,98,39,1,30.08,29.93,4,0,0,0.03
2014-2-2,64,51,43,56,46,34,98,86,33,29.94,29.84,7,2,0,0.00
2014-2-3,66,51,40,65,51,40,98,98,98,30.10,29.72,8,3,0,0.31
2014-2-4,42,39,38,41,39,38,98,98,98,30.22,29.92,6,2,0,0.49
2014-2-5,52,44,39,52,43,23,98,95,47,29.91,29.61,6,1,0,0.07
2014-2-6,44,38,31,22,-14,-55,50,22,1,30.16,29.90,6,2,0,0.00
2014-2-7,52,40,31,37,1,-51,98,44,1,30.17,30.08,5,1,0,0.00
2014-2-8,53,40,33,36,0,-52,98,49,1,30.11,29.94,4,1,0,0.00
2014-2-9,57,41,28,48,26,-44,98,72,1,30.00,29.79,4,1,0,0.00
2014-2-10,42,38,35,41,25,-52,98,79,1,30.08,29.83,7,2,0,0.07
2014-2-11,35,32,28,34,-13,-60,98,41,1,30.22,30.06,6,2,0,0.00
2014-2-12,33,26,23,32,-19,-62,98,48,1,30.26,29.59,9,4,0,0.00
2014-2-13,36,33,31,36,33,30,98,98,98,29.59,29.24,5,2,0,0.08
2014-2-14,59,42,30,40,9,-50,98,62,1,29.61,29.47,4,2,0,0.71
2014-2-15,47,39,30,44,-4,-59,98,51,1,29.87,29.36,14,2,0,0.41
2014-2-16,54,39,30,25,-44,-59,68,7,1,29.99,29.82,5,1,0,0.00
2014-2-17,46,37,28,21,-28,-57,63,17,1,30.22,29.99,8,2,0,0.00
2014-2-18,66,48,35,45,-11,-50,98,36,1,30.05,29.92,5,1,0,0.00
2014-2-19,72,58,46,70,52,-50,98,86,1,29.92,29.73,8,2,0,0.59
2014-2-20,72,62,52,66,25,-44,98,48,1,30.04,29.83,5,2,0,0.00
2014-2-21,71,60,46,70,60,39,98,98,78,29.86,29.62,9,3,0,0.64
2014-2-22,66,50,38,40,-21,-51,98,18,1,30.03,29.86,4,1,0,0.00
2014-2-23,68,53,40,29,-30,-53,45,8,1,29.94,29.70,5,2,0,0.00
2014-2-24,61,51,41,50,-20,-52,98,18,1,29.96,29.70,8,2,0,0.00
2014-2-25,56,43,32,-43,-51,-58,1,1,1,29.96,29.78,4,1,0,0.00
2014-2-26,49,40,32,5,-44,-58,25,4,1,29.80,29.60,7,2,0,0.00
2014-2-27,56,38,24,-1,-50,-63,33,3,1,29.82,29.58,7,2,0,0.00
2014-2-28,46,36,27,-49,-56,-61,1,1,1,30.15,29.83,7,3,0,0.00
2014-3-1,59,41,30,40,-37,-59,98,13,1,30.19,30.04,4,1,0,0.00
2014-3-2,71,55,37,47,2,-41,98,43,1,30.06,29.73,6,2,0,0.00
2014-3-3,59,40,21,53,35,12,98,87,26,30.10,29.65,9,4,0,0.33
2014-3-4,40,28,16,8,-43,-68,60,11,1,30.17,30.02,6,3,0,0.09
2014-3-5,46,37,31,-49,-55,-59,1,1,1,30.11,29.97,4,2,0,0.00
2014-3-6,44,36,31,36,-27,-59,98,32,1,30.20,29.92,9,5,0,0.73
2014-3-7,38,35,32,37,34,32,98,98,98,29.90,29.69,12,5,0,1.96
2014-3-8,68,49,30,54,20,-42,98,64,1,29.90,29.77,5,1,0,0.01
2014-3-9,67,54,42,50,8,-46,98,46,1,29.91,29.79,7,2,0,0.00
2014-3-10,75,55,38,47,-4,-43,98,41,1,29.84,29.63,6,1,0,0.00
2014-3-11,80,62,44,48,-20,-45,98,15,1,29.64,29.48,4,1,0,0.00
2014-3-12,68,60,44,66,45,-49,98,68,1,29.51,29.02,12,3,0,0.53
2014-3-13,46,39,31,9,-47,-59,24,3,1,30.05,29.43,9,3,0,0.00
2014-3-14,62,44,26,-8,-48,-62,21,2,1,30.15,29.92,6,2,0,0.00
2014-3-15,74,59,48,36,-16,-47,61,15,1,29.91,29.76,9,3,0,0.00
2014-3-16,56,49,38,50,-6,-49,98,41,1,29.87,29.65,8,2,0,0.17
2014-3-17,37,33,32,37,33,31,98,98,98,29.80,29.64,8,4,0,0.28
2014-3-18,38,34,31,37,34,30,98,98,98,29.99,29.75,7,3,0,0.09
2014-3-19,50,42,36,50,42,35,98,98,98,30.00,29.81,6,2,0,0.11
2014-3-20,68,53,42,57,-2,-50,98,45,1,29.86,29.76,7,2,0,0.00
2014-3-21,72,54,34,38,-29,-54,98,13,1,29.99,29.86,5,1,0,0.00
2014-3-22,77,61,47,58,-2,-47,98,32,1,29.91,29.75,5,2,0,0.00
2014-3-23,59,49,38,54,29,-44,98,74,1,29.96,29.75,8,2,0,0.15
2014-3-24,54,41,31,39,-12,-54,98,41,1,30.12,29.93,5,2,0,0.00
2014-3-25,50,40,34,45,26,-54,98,74,1,29.93,29.58,6,2,0,0.04
2014-3-26,48,38,30,33,-31,-59,98,18,1,30.15,29.78,13,3,0,0.00
2014-3-27,61,44,26,43,-19,-56,98,24,1,30.31,30.11,6,1,0,0.00
2014-3-28,70,57,44,68,56,44,98,96,69,30.12,29.93,6,2,0,0.17
2014-3-29,67,62,58,66,62,58,98,98,92,29.95,29.37,8,1,0,2.02
2014-3-30,63,49,42,62,24,-49,98,64,1,29.77,29.36,14,4,0,0.06
2014-3-31,73,55,38,26,-25,-52,61,10,1,29.93,29.77,9,2,0,0.00
2014-4-1,84,62,42,50,-19,-50,98,18,1,29.99,29.82,5,1,0,0.00
2014-4-2,89,70,52,-24,-35,-45,1,1,1,29.92,29.79,5,1,0,0.00
2014-4-3,80,66,53,50,-8,-44,74,16,1,29.91,29.71,6,1,0,0.00
2014-4-4,83,70,56,71,25,-39,98,47,1,29.71,29.54,8,2,0,0.01
2014-4-5,73,65,56,61,-4,-43,98,27,1,29.89,29.60,7,2,0,0.00
2014-4-6,62,54,47,35,-38,-49,53,4,1,30.03,29.89,8,3,0,0.00
2014-4-7,62,52,45,62,39,-46,98,85,1,29.93,29.48,5,2,0,0.95
2014-4-8,69,63,55,67,54,26,98,78,20,29.50,29.41,6,2,0,0.01
2014-4-9,69,58,49,58,11,-43,98,46,1,29.92,29.50,6,2,0,0.02
2014-4-10,77,60,42,53,-2,-41,98,38,1,30.11,29.93,5,2,0,0.00
2014-4-11,80,66,54,58,7,-37,98,31,1,30.05,29.87,8,2,0,0.01
2014-4-12,85,69,55,65,19,-37,98,49,1,30.04,29.91,5,1,0,0.00
2014-4-13,84,70,56,75,40,-32,98,61,1,30.04,29.88,5,2,0,0.00
2014-4-14,78,68,61,74,64,53,98,89,42,29.92,29.65,5,2,0,0.05
2014-4-15,71,62,41,71,61,40,98,98,98,29.82,29.40,8,2,0,1.53
2014-4-16,58,44,33,40,-8,-51,98,40,1,30.28,29.82,8,3,0,0.00
2014-4-17,67,50,33,51,5,-46,98,50,1,30.38,30.24,6,2,0,0.00
2014-4-18,66,52,40,54,26,-40,98,66,1,30.28,30.05,6,2,0,0.10
2014-4-19,54,50,47,53,50,46,98,98,98,30.04,29.96,6,3,0,0.62
2014-4-20,69,58,50,51,-5,-45,98,24,1,30.07,30.00,10,3,0,0.00
2014-4-21,76,58,42,51,-9,-48,98,30,1,30.03,29.74,4,1,0,0.00
2014-4-22,84,66,51,66,12,-34,98,36,1,29.74,29.48,6,2,0,0.00
2014-4-23,74,63,54,62,-4,-44,98,34,1,29.79,29.50,8,2,0,0.00
2014-4-24,74,59,44,45,-22,-48,98,15,1,29.99,29.80,3,1,0,0.00
2014-4-25,82,64,50,78,60,-43,98,91,1,29.83,29.47,6,1,0,0.18
2014-4-26,83,68,53,62,7,-39,98,41,1,29.83,29.65,5,2,0,0.00
2014-4-27,88,71,55,69,12,-40,98,38,1,29.83,29.71,3,1,0,0.00
2014-4-28,72,62,56,71,62,55,98,98,98,29.81,29.71,6,2,0,0.00
2014-4-29,70,60,54,69,60,53,98,98,98,29.84,29.73,4,1,0,0.02
2014-4-30,78,72,64,77,71,63,98,98,92,29.84,29.70,5,2,0,1.55
2014-5-1,80,71,65,78,68,-24,98,93,2,29.71,29.58,5,2,0,0.00
2014-5-2,70,62,54,64,14,-39,98,50,1,29.79,29.64,4,1,0,0.00
2014-5-3,79,65,54,68,18,-40,98,52,1,29.73,29.66,6,1,0,0.00
2014-5-4,86,70,52,62,6,-35,98,37,1,29.82,29.62,5,1,0,0.00
2014-5-5,79,67,60,65,41,-30,98,60,1,29.84,29.66,3,1,0,0.00
2014-5-6,90,72,58,77,44,-29,98,71,1,29.79,29.65,5,1,0,0.00
2014-5-7,83,69,60,82,68,59,98,98,83,29.96,29.79,3,1,0,0.00
2014-5-8,91,76,64,78,29,-31,98,54,1,30.00,29.88,7,1,0,0.00
2014-5-9,90,76,64,84,48,-27,98,72,1,29.98,29.83,6,1,0,0.09
2014-5-10,87,74,66,85,63,-30,98,86,1,29.94,29.80,6,1,0,0.00
2014-5-11,90,74,62,82,47,-29,98,70,1,29.97,29.85,3,0,0,0.00
2014-5-12,94,77,62,84,44,-26,98,65,1,30.01,29.90,4,1,0,0.00
2014-5-13,94,80,68,89,54,-25,98,71,1,29.97,29.88,5,1,0,0.00
2014-5-14,91,78,68,86,58,-27,98,74,1,29.99,29.87,5,2,0,0.00
2014-5-15,79,71,67,78,67,-34,98,94,1,29.93,29.64,6,1,0,4.42
2014-5-16,76,66,56,70,42,-36,98,71,1,29.84,29.62,9,2,0,0.33
2014-5-17,75,62,49,61,15,-40,98,52,1,30.00,29.84,6,2,0,0.00
2014-5-18,73,61,52,61,39,-37,98,66,1,30.05,29.98,4,1,0,0.00
2014-5-19,78,62,48,63,16,-38,98,54,1,30.14,30.03,3,1,0,0.00
2014-5-20,82,68,51,71,44,-30,98,67,1,30.11,29.90,7,2,0,0.00
2014-5-21,89,75,63,82,50,-25,98,71,1,29.91,29.74,5,2,0,0.00
2014-5-22,90,78,68,82,60,-26,98,73,1,29.76,29.65,5,2,0,0.00
2014-5-23,87,77,69,78,40,-30,98,59,1,29.83,29.71,5,1,0,0.00
2014-5-24,87,70,58,66,17,-34,98,41,1,29.96,29.80,4,1,0,0.00
2014-5-25,83,70,56,74,31,-30,98,62,1,30.02,29.93,5,0,0,0.00
2014-5-26,90,75,62,82,53,-26,98,74,1,30.03,29.87,6,2,0,0.00
2014-5-27,90,76,68,86,72,58,98,89,35,29.92,29.76,8,2,0,0.02
2014-5-28,94,79,67,87,59,-25,98,74,1,29.82,29.73,5,1,0,0.00
2014-5-29,80,73,67,80,72,67,98,98,98,29.91,29.78,4,1,0,0.00
2014-5-30,79,71,66,79,70,65,98,98,98,29.94,29.85,4,1,0,0.00
2014-5-31,88,74,65,78,35,-32,98,59,1,30.03,29.92,5,1,0,0.00
2014-6-1,85,69,56,66,19,-35,98,47,1,30.16,30.04,4,1,0,0.00
2014-6-2,86,70,54,69,30,-32,98,58,1,30.12,29.92,4,0,0,0.00
2014-6-3,88,74,58,82,55,-26,98,71,1,29.94,29.74,5,1,0,0.00
2014-6-4,93,79,68,85,64,-22,98,78,1,29.74,29.58,7,1,0,0.00
2014-6-5,93,82,74,88,75,46,98,84,21,29.65,29.52,5,2,0,0.01
2014-6-6,89,77,70,79,67,34,98,77,24,29.77,29.63,5,1,0,0.00
2014-6-7,91,76,64,80,52,-27,98,70,1,29.85,29.75,3,1,0,0.00
2014-6-8,88,76,65,80,67,44,98,79,22,29.81,29.69,4,1,0,0.00
2014-6-9,93,79,71,87,76,65,98,92,40,29.73,29.65,6,1,0,0.44
2014-6-10,99,81,69,90,61,-33,98,75,1,29.77,29.69,4,1,0,0.11
2014-6-11,95,80,70,84,69,28,98,79,9,29.79,29.63,8,1,0,0.13
2014-6-12,87,76,69,86,73,-33,98,95,1,29.74,29.62,3,0,0,0.06
2014-6-13,90,77,68,87,75,2,98,96,7,29.68,29.59,5,1,0,0.12
2014-6-14,90,78,66,84,56,-31,98,72,1,29.88,29.68,5,1,0,0.00
2014-6-15,92,76,61,83,65,-24,98,81,1,30.01,29.87,3,1,0,0.00
2014-6-16,98,83,71,89,54,-22,98,68,1,30.01,29.88,4,1,0,0.00
2014-6-17,98,83,72,91,65,-21,98,78,1,29.97,29.87,6,2,0,0.00
2014-6-18,102,85,72,90,54,-22,98,69,1,29.94,29.84,8,2,0,0.00
2014-6-19,99,83,73,89,62,-21,98,77,1,29.91,29.79,6,2,0,0.01
2014-6-20,94,80,70,88,72,-34,98,85,1,29.86,29.72,4,1,0,0.08
2014-6-21,93,80,71,90,73,-33,98,89,1,29.77,29.60,6,1,0,0.02
2014-6-22,91,76,70,91,72,-34,98,94,1,29.79,29.62,4,1,0,1.26
2014-6-23,88,77,66,85,74,62,98,92,47,29.94,29.78,4,1,0,0.00
2014-6-24,86,78,67,86,77,67,98,98,98,29.95,29.83,3,1,0,0.00
2014-6-25,93,80,73,92,77,-32,98,94,1,29.84,29.68,5,1,0,0.11
2014-6-26,99,83,72,90,65,-21,98,77,1,29.79,29.71,4,1,0,0.00
2014-6-27,90,78,72,90,78,72,98,98,98,29.93,29.79,6,1,0,0.00
2014-6-28,91,78,72,86,76,36,98,94,25,30.04,29.93,5,2,0,0.00
2014-6-29,92,76,63,78,41,-27,98,64,1,30.05,29.93,3,1,0,0.00
2014-6-30,92,80,68,85,73,54,98,84,28,29.94,29.78,3,1,0,0.00
2014-7-1,93,81,73,90,79,72,98,94,56,29.82,29.70,4,1,0,0.01
2014-7-2,99,85,75,94,79,56,98,85,26,29.79,29.72,5,2,0,0.00
2014-7-3,90,81,74,90,75,-32,98,92,1,29.83,29.67,5,1,0,0.15
2014-7-4,93,79,71,80,49,-29,98,64,1,29.97,29.68,6,2,0,0.00
2014-7-5,92,76,65,72,18,-32,98,43,1,30.11,29.97,5,1,0,0.00
2014-7-6,91,76,63,82,42,-27,98,66,1,30.01,29.83,4,1,0,0.00
2014-7-7,97,81,68,88,51,-24,98,69,1,29.89,29.74,8,2,0,0.00
2014-7-8,98,86,73,90,33,-32,98,50,1,29.83,29.68,8,2,0,0.00
2014-7-9,98,80,74,89,74,-20,98,91,1,29.85,29.74,6,1,0,0.39
2014-7-10,89,77,71,88,70,-34,98,91,1,29.91,29.81,3,1,0,0.82
2014-7-11,90,77,71,88,76,20,98,97,13,30.02,29.91,3,0,0,0.01
2014-7-12,93,80,68,90,74,-34,98,88,1,30.05,29.94,3,0,0,0.00
2014-7-13,95,82,71,90,64,-33,98,78,1,29.97,29.81,4,1,0,0.00
2014-7-14,95,83,75,93,82,15,98,97,10,29.84,29.67,5,1,0,0.00
2014-7-15,92,79,71,91,73,-34,98,92,1,29.70,29.56,7,1,0,0.01
2014-7-16,85,75,68,82,74,67,98,97,77,29.74,29.60,5,1,0,0.01
2014-7-17,92,74,63,82,59,-38,98,76,1,29.92,29.74,4,0,0,0.00
2014-7-18,89,76,65,83,50,-27,98,71,1,30.01,29.91,3,1,0,0.00
2014-7-19,86,75,68,80,67,29,98,83,13,29.99,29.89,3,0,0,0.00
2014-7-20,85,75,69,84,74,53,98,97,49,29.95,29.85,3,0,0,0.02
2014-7-21,78,75,72,77,60,-32,98,85,1,29.98,29.86,2,0,0,0.00
2014-7-22,89,78,72,88,75,-32,98,95,1,29.98,29.88,4,1,0,0.01
2014-7-23,94,82,72,93,80,23,98,97,13,29.92,29.72,5,1,0,0.00
2014-7-24,91,79,69,91,74,-34,98,92,1,29.77,29.62,4,1,0,0.01
2014-7-25,83,75,67,83,73,-33,98,97,1,29.88,29.77,3,0,0,0.01
2014-7-26,92,79,71,91,63,-34,98,83,1,29.85,29.74,3,1,0,0.00
2014-7-27,89,79,73,89,71,-33,98,90,1,29.79,29.56,5,1,0,0.00
2014-7-28,92,82,73,89,79,56,98,92,30,29.68,29.53,8,2,0,0.00
2014-7-29,87,75,66,80,66,-26,98,83,1,29.79,29.66,3,1,0,0.00
2014-7-30,85,74,66,84,74,65,98,98,98,29.89,29.78,2,0,0,0.00
2014-7-31,84,74,68,83,67,-36,98,91,1,29.96,29.88,3,0,0,0.00
2014-8-1,77,70,66,77,66,-36,98,95,1,29.97,29.87,6,1,0,0.00
2014-8-2,71,68,66,70,59,-36,98,90,1,29.94,29.86,3,0,0,0.00
2014-8-3,80,72,69,80,36,-35,98,64,1,29.95,29.85,3,0,0,0.00
2014-8-4,87,76,68,87,67,-35,98,91,1,29.93,29.83,3,0,0,0.00
2014-8-5,92,78,70,91,74,-34,98,94,1,29.88,29.77,3,0,0,0.00
2014-8-6,91,80,72,88,67,-33,98,79,1,29.80,29.71,5,1,0,0.00
2014-8-7,89,78,69,88,71,-35,98,92,1,29.83,29.72,6,1,0,0.00
2014-8-8,82,76,69,82,74,-33,98,97,1,29.94,29.83,3,0,0,0.00
2014-8-9,74,68,65,74,62,-38,98,92,1,29.94,29.85,4,1,0,0.00
2014-8-10,81,72,67,80,69,-36,98,95,1,29.93,29.85,3,1,0,0.00
2014-8-11,84,75,71,84,73,-7,98,96,4,29.89,29.77,4,1,0,0.00
2014-8-12,89,76,70,88,70,-33,98,93,1,29.78,29.57,3,0,0,0.00
2014-8-13,85,76,69,84,74,-34,98,96,1,29.78,29.61,5,1,0,0.00
2014-8-14,85,72,61,79,47,-38,98,70,1,29.87,29.76,3,0,0,0.00
2014-8-15,88,75,63,87,70,-37,98,92,1,29.85,29.76,4,0,0,0.00
2014-8-16,91,78,69,90,74,-35,98,94,1,29.84,29.78,3,1,0,0.00
2014-8-17,89,79,71,89,72,-34,98,90,1,29.83,29.75,5,0,0,0.00
2014-8-18,91,78,73,91,59,-32,98,80,1,29.76,29.58,5,1,0,0.00
2014-8-19,88,78,71,88,73,-32,98,93,1,29.70,29.57,3,0,0,0.00
2014-8-20,91,80,72,90,73,-33,98,91,1,29.83,29.68,3,0,0,0.00
2014-8-21,92,82,74,91,77,-30,98,93,1,29.89,29.78,4,1,0,0.00
2014-8-22,94,80,72,93,74,-33,98,92,1,29.85,29.74,4,1,0,0.00
2014-8-23,87,78,73,87,73,-32,98,93,1,29.78,29.71,3,1,0,0.00
2014-8-24,81,74,68,80,69,-34,98,93,1,29.91,29.77,5,2,0,0.00
2014-8-25,80,70,61,79,54,-40,98,83,1,29.93,29.88,5,1,0,0.00
2014-8-26,84,72,62,83,66,-39,98,92,1,29.96,29.88,5,1,0,0.00
2014-8-27,90,74,61,86,46,-39,98,71,1,29.88,29.77,3,1,0,0.00
2014-8-28,94,78,66,94,75,-37,98,96,1,29.82,29.75,4,0,0,0.00
2014-8-29,85,78,73,84,74,-32,98,95,1,29.98,29.81,3,1,0,0.00
2014-8-30,92,80,72,91,58,-33,98,78,1,30.04,29.93,3,0,0,0.00
2014-8-31,93,81,73,92,78,-32,98,96,1,30.01,29.85,4,1,0,0.00
2014-9-1,94,82,74,94,74,-32,98,90,1,29.92,29.81,4,1,0,0.00
2014-9-2,97,82,74,96,79,-30,98,96,1,29.88,29.75,4,1,0,0.00
2014-9-3,93,80,72,93,71,-34,98,90,1,29.94,29.78,3,1,0,0.00
2014-9-4,92,80,72,91,76,-33,98,95,1,30.02,29.90,3,1,0,0.00
2014-9-5,94,80,72,93,79,43,98,97,24,30.01,29.88,5,1,0,0.00
2014-9-6,91,80,72,91,64,-34,98,83,1,29.91,29.74,5,1,0,0.00
2014-9-7,84,76,71,83,51,-34,98,74,1,29.91,29.76,4,1,0,0.00
2014-9-8,72,71,69,72,60,-35,98,89,1,29.91,29.81,5,1,0,0.00
2014-9-9,76,71,67,76,64,-32,98,90,1,29.93,29.83,5,1,0,0.00
2014-9-10,82,74,69,81,66,-35,98,90,1,29.95,29.84,3,0,0,0.00
2014-9-11,88,77,68,87,72,-32,98,94,1,29.86,29.74,6,1,0,0.00
2014-9-12,83,76,72,82,69,-33,98,90,1,29.91,29.78,4,1,0,0.00
2014-9-13,82,74,70,82,65,-35,98,88,1,29.98,29.84,4,0,0,0.00
2014-9-14,73,68,62,72,65,-38,98,96,1,30.08,29.97,4,1,0,0.00
2014-9-15,76,68,64,76,50,-38,98,80,1,30.06,29.91,2,0,0,0.00
2014-9-16,84,74,68,83,69,-36,98,92,1,29.90,29.73,3,0,0,0.00
2014-9-17,80,72,68,79,54,-36,98,80,1,29.80,29.70,4,1,0,0.00
2014-9-18,81,71,61,80,68,-39,98,95,1,29.87,29.73,2,0,0,0.00
2014-9-19,79,70,65,79,66,-38,98,94,1,30.04,29.87,5,1,0,0.00
2014-9-20,83,70,60,82,63,-40,98,91,1,30.05,29.78,7,1,0,0.00
2014-9-21,88,74,63,87,71,-37,98,96,1,29.78,29.59,8,1,0,0.00
2014-9-22,77,70,64,72,43,-35,98,74,1,29.95,29.66,4,1,0,0.00
2014-9-23,64,60,55,64,57,-44,98,95,1,30.14,29.95,6,2,0,0.00
2014-9-24,64,60,55,64,28,-44,98,67,1,30.12,30.03,6,2,0,0.00
2014-9-25,70,66,64,69,63,-37,98,95,1,30.07,29.99,5,2,0,0.00
2014-9-26,78,67,62,77,61,-39,98,92,1,30.03,29.96,6,2,0,0.00
2014-9-27,77,66,58,77,62,-41,98,93,1,30.04,29.96,5,1,0,0.00
2014-9-28,79,67,58,78,58,-42,98,90,1,30.01,29.88,3,0,0,0.00
2014-9-29,77,67,64,76,59,-38,98,89,1,29.88,29.76,3,0,0,0.00
2014-9-30,78,67,62,78,65,-36,98,96,1,29.76,29.66,2,0,0,0.00
2014-10-1,79,67,59,79,59,-41,98,91,1,29.85,29.72,3,0,0,0.00
2014-10-2,84,70,62,83,61,-40,98,89,1,29.93,29.84,2,0,0,0.00
2014-10-3,82,72,64,82,67,-37,98,94,1,29.87,29.56,5,1,0,0.00
2014-10-4,72,66,51,72,21,-46,98,55,1,29.71,29.48,8,2,0,0.01
2014-10-5,66,53,42,55,11,-48,98,57,1,29.85,29.68,4,1,0,0.08
2014-10-6,75,59,46,64,20,-39,98,62,1,29.93,29.82,6,1,0,0.00
2014-10-7,79,66,55,77,49,-32,98,82,1,29.97,29.79,7,1,0,0.00
2014-10-8,83,70,61,83,65,-38,98,93,1,29.86,29.74,8,1,0,0.11
2014-10-9,80,65,52,69,26,-44,98,62,1,29.98,29.84,4,1,0,0.00
2014-10-10,84,71,60,83,68,-36,98,95,1,29.93,29.78,5,1,0,0.98
2014-10-11,85,71,60,85,65,-40,98,92,1,29.91,29.72,7,2,0,0.53
2014-10-12,63,60,57,62,56,-40,98,95,1,30.04,29.90,4,1,0,0.04
2014-10-13,81,70,61,80,68,-21,98,97,2,30.07,29.94,3,0,0,0.00
2014-10-14,78,74,70,78,59,-34,98,85,1,29.95,29.70,6,2,0,0.37
2014-10-15,74,66,58,74,54,-40,98,87,1,29.70,29.60,5,1,0,0.74
2014-10-16,69,60,54,69,56,-43,98,95,1,29.65,29.56,4,1,0,0.00
2014-10-17,75,60,50,71,44,-35,98,83,1,29.73,29.61,4,1,0,0.00
2014-10-18,75,62,54,72,20,-43,98,58,1,29.71,29.54,7,1,0,0.00